Miscellaneous Local Product
Issued by NWS Hastings, NE

Home | Current Version | Previous Version | Graphics & Text | Print | Product List | Glossary On
Versions: 1 2 3 4 5 6 7 8 9 10 11 12 13 14 15 16 17 18 19 20 21 22 23 24 25 26 27 28 29 30 31 32 33 34 35 36 37 38 39 40 41 42 43 44 45 46 47 48 49 50
000
AXUS43 KGID 020602
MISGRI

GID CWA HOURLY WEATHER ROUNDUP
NATIONAL WEATHER SERVICE HASTINGS NE
1200 AM CST MON MAR 02 2015

NOTE: "FAIR" INDICATES FEW OR NO CLOUDS BELOW 12,000 FEET WITH NO
SIGNIFICANT WEATHER AND/OR OBSTRUCTIONS TO VISIBILITY.

...SOUTH CENTRAL NEBRASKA...

CITY           SKY/WX    TMP DP  RH WIND       PRES   REMARKS
GRAND ISLAND   CLOUDY    25  14  63 CALM      30.44S
HASTINGS       CLOUDY    28  13  53 E5        30.42R WCI  23
KEARNEY        MOCLDY    25  10  54 CALM      30.42S
ORD            MOCLDY    15   6  67 CALM      30.41S
YORK           MOCLDY    25  16  68 NE6       30.45S WCI  18
AURORA         CLOUDY    26  14  59 NE8       30.44S WCI  18
LEXINGTON      MOCLDY    24  13  64 CALM      30.41R
HOLDREGE       MOCLDY    26  11  52 CALM      30.40F
HEBRON         CLOUDY    27  19  71 CALM      30.46S

...NEBRASKA PANHANDLE...

CITY           SKY/WX    TMP DP  RH WIND       PRES   REMARKS
CHADRON        MOCLDY    20  13  74 CALM      30.28F
ALLIANCE       MOCLDY    23  14  68 SE8       30.25F WCI  14
SCOTTSBLUFF    CLOUDY    25  14  63 E8        30.23F WCI  16
SIDNEY         MOCLDY    21  17  84 S6        30.26F WCI  13

...WESTERN AND NORTH CENTRAL NEBRASKA...

CITY           SKY/WX    TMP DP  RH WIND       PRES   REMARKS
VALENTINE      PTCLDY    14   8  77 SW3       30.37F
AINSWORTH      PTCLDY    16  10  79 CALM      30.37F
ONEILL         PTCLDY    21   9  61 CALM      30.42S
BROKEN BOW     PTCLDY    15   7  70 CALM      30.39S
IMPERIAL         N/A     26  16  65 CALM      30.33F
NORTH PLATTE   PTCLDY    21  12  68 E6        30.37S WCI  13
MCCOOK         CLOUDY    32  15  49 S6        30.37F WCI  26

...EASTERN NEBRASKA...

CITY           SKY/WX    TMP DP  RH WIND       PRES   REMARKS
NORFOLK        PTCLDY    16   9  74 SE3       30.44S
SO SIOUX CITY  PTCLDY    16  11  80 SW5       30.48R WCI   9
TEKAMAH        PTCLDY    20  14  77 N3        30.49R
COLUMBUS       PTCLDY    19   7  58 CALM      30.47S
ALBION         PTCLDY    13   6  73 CALM      30.44S
OMAHA EPPLEY   PTCLDY    23  17  78 NW3       30.48S
OFFUTT AFB     MOCLDY    21  18  85 N2        30.48R
MILLARD        CLEAR     24  17  74 CALM      30.48S
LINCOLN        MOCLDY    23  16  74 N5        30.48R WCI  17
NEBRASKA CITY  PTCLDY    27  13  56 W7        30.46S WCI  19
BEATRICE       PTCLDY    25  19  77 CALM      30.46S
FALLS CITY     MOCLDY    26  21  81 CALM      30.47S

...NORTHERN KANSAS...

CITY           SKY/WX    TMP DP  RH WIND       PRES   REMARKS
GOODLAND       CLOUDY    30  21  69 S8        30.33F WCI  22
HILL CITY      CLOUDY    30  21  69 SW3       30.42S
NORTON         CLOUDY    30  18  59 S6        30.39F WCI  24
PHILLIPSBURG   CLOUDY    34  25  69 SW3       30.44R
SMITH CENTER   CLOUDY    28  21  74 S3        30.45S
BELOIT         CLOUDY    30  23  74 CALM      30.46S
HAYS           MOCLDY    25  12  58 W3        30.44F
RUSSELL        MOCLDY    23  20  88 SW6       30.44R WCI  16
CONCORDIA      MOCLDY    30  22  72 SW7       30.45R WCI  23
SALINA         PTCLDY    22  18  85 SW6       30.48R WCI  14
TOPEKA         PTCLDY    23  19  85 CALM      30.50R



USA.gov is the U.S. government's official web portal to all federal, state and local government web resources and services.